Location: Hamayl? Da??
(36.7028°N, 30.1716°E)
Time: 06:36:27
(UTC+00:00)

Cosmos 2251 Rocket - Pass Details

Date: 04 August 2024
Orbit: 763 x 788 km, 74.0° (Epoch: 10 September)

Event Time Altitude Azimuth Distance (km) Brightness Sun altitude
Rises 18:01:13 0° 347° (NNW) 3,264 7.5 -11.4°
Reaches altitude 10° 18:03:41 10° 353° (N) 2,328 6.6 -11.8°
Maximum altitude 18:08:49 50° 69° (ENE) 976 3.8 -12.7°
Enters shadow 18:12:32 18° 139° (SE) 1,813 4.8 -13.3°
